| time (UTC) | temp F | wind direction | speed MPH | gust MPH | rain 1hr in | rain 24hr in | rain mn in | humidity % | barometer mb |
| 20260507150813 | 59 | 319 | 2.0 | 4.0 | 0.00 | 0.00 | 0.00 | 88 | 1016.2 |
| 20260507150313 | 59 | 117 | 0.0 | 0.0 | 0.00 | 0.00 | 0.00 | 88 | 1016.1 |
| 20260507145813 | 59 | 282 | 0.0 | 0.0 | 0.00 | 0.00 | 0.00 | 88 | 1016.0 |
| 20260507145314 | 59 | 302 | 0.0 | 0.0 | 0.00 | 0.00 | 0.00 | 88 | 1016.1 |
| 20260507144813 | 59 | 35 | 0.0 | 0.0 | 0.00 | 0.00 | 0.00 | 88 | 1016.1 |
| 20260507144314 | 59 | 10 | 0.0 | 0.0 | 0.00 | 0.00 | 0.00 | 88 | 1016.1 |
| 20260507143814 | 58 | 42 | 0.0 | 0.0 | 0.00 | 0.00 | 0.00 | 88 | 1016.0 |
| 20260507143312 | 58 | 34 | 0.0 | 0.0 | 0.00 | 0.00 | 0.00 | 88 | 1016.0 |
| 20260507142815 | 58 | 48 | 0.0 | 0.0 | 0.00 | 0.00 | 0.00 | 88 | 1015.9 |
| 20260507142313 | 58 | 62 | 0.0 | 0.0 | 0.00 | 0.00 | 0.00 | 88 | 1015.9 |
| 20260507142107 | 58 | 37 | 0.0 | 0.0 | 0.00 | 0.00 | 0.00 | 88 | 1015.8 |
| 20260507141602 | 58 | 14 | 0.0 | 0.0 | 0.00 | 0.00 | 0.00 | 88 | 1015.9 |
| 20260507140812 | 58 | 27 | 0.0 | 0.0 | 0.00 | 0.00 | 0.00 | 88 | 1015.9 |
| 20260507140313 | 58 | 341 | 0.0 | 0.0 | 0.00 | 0.00 | 0.00 | 88 | 1015.7 |
| 20260507135813 | 57 | 38 | 0.0 | 0.0 | 0.00 | 0.00 | 0.00 | 88 | 1015.7 |
| 20260507135311 | 57 | 41 | 0.0 | 0.0 | 0.00 | 0.00 | 0.00 | 88 | 1015.6 |
| 20260507134812 | 57 | 41 | 0.0 | 0.0 | 0.00 | 0.00 | 0.00 | 88 | 1015.6 |
| 20260507134312 | 57 | 44 | 0.0 | 0.0 | 0.00 | 0.00 | 0.00 | 88 | 1015.7 |
| 20260507133812 | 57 | 44 | 0.0 | 0.0 | 0.00 | 0.00 | 0.00 | 88 | 1015.6 |
| 20260507133311 | 56 | 44 | 0.0 | 0.0 | 0.00 | 0.00 | 0.00 | 88 | 1015.6 |
| 20260507132811 | 56 | 37 | 0.0 | 0.0 | 0.00 | 0.00 | 0.00 | 88 | 1015.6 |
| 20260507132311 | 56 | 333 | 0.0 | 0.0 | 0.00 | 0.00 | 0.00 | 87 | 1015.6 |
| 20260507131811 | 56 | 30 | 0.0 | 0.0 | 0.00 | 0.00 | 0.00 | 87 | 1015.5 |
| 20260507131311 | 56 | 24 | 0.0 | 0.0 | 0.00 | 0.00 | 0.00 | 88 | 1015.6 |
| 20260507130812 | 56 | 4 | 0.0 | 0.0 | 0.00 | 0.00 | 0.00 | 87 | 1015.6 |
| 20260507130311 | 56 | 27 | 0.0 | 0.0 | 0.00 | 0.00 | 0.00 | 87 | 1015.5 |
| 20260507130105 | 56 | 27 | 0.0 | 0.0 | 0.00 | 0.00 | 0.00 | 87 | 1015.6 |
| 20260507125310 | 55 | 27 | 0.0 | 0.0 | 0.00 | 0.00 | 0.00 | 87 | 1015.4 |
| 20260507124810 | 55 | 27 | 0.0 | 0.0 | 0.00 | 0.00 | 0.00 | 87 | 1015.5 |
| 20260507124311 | 55 | 27 | 0.0 | 0.0 | 0.00 | 0.00 | 0.00 | 87 | 1015.3 |
| 20260507123810 | 55 | 27 | 0.0 | 0.0 | 0.00 | 0.00 | 0.00 | 87 | 1015.3 |
| 20260507123310 | 55 | 27 | 0.0 | 0.0 | 0.00 | 0.00 | 0.00 | 87 | 1015.2 |
| 20260507123103 | 55 | 27 | 0.0 | 0.0 | 0.00 | 0.00 | 0.00 | 87 | 1015.3 |
| 20260507122310 | 55 | 27 | 0.0 | 0.0 | 0.00 | 0.00 | 0.00 | 87 | 1015.3 |
| 20260507122102 | 55 | 27 | 0.0 | 0.0 | 0.00 | 0.00 | 0.00 | 87 | 1015.2 |
| 20260507121310 | 55 | 27 | 0.0 | 0.0 | 0.00 | 0.00 | 0.00 | 87 | 1015.2 |
| 20260507120809 | 55 | 27 | 0.0 | 0.0 | 0.00 | 0.00 | 0.00 | 87 | 1015.2 |
| 20260507120309 | 55 | 27 | 0.0 | 0.0 | 0.00 | 0.00 | 0.00 | 87 | 1015.2 |
| 20260507115809 | 55 | 27 | 0.0 | 0.0 | 0.00 | 0.00 | 0.00 | 87 | 1015.1 |
| 20260507115308 | 55 | 27 | 0.0 | 0.0 | 0.00 | 0.00 | 0.00 | 87 | 1015.3 |
| 20260507114809 | 55 | 27 | 0.0 | 0.0 | 0.00 | 0.00 | 0.00 | 87 | 1015.3 |
| 20260507114343 | 55 | 27 | 0.0 | 0.0 | 0.00 | 0.00 | 0.00 | 87 | 1015.2 |
| 20260507113309 | 55 | 27 | 0.0 | 0.0 | 0.00 | 0.00 | 0.00 | 87 | 1015.2 |
| 20260507112808 | 55 | 27 | 0.0 | 0.0 | 0.00 | 0.00 | 0.00 | 87 | 1015.3 |
| 20260507112311 | 55 | 27 | 0.0 | 0.0 | 0.00 | 0.00 | 0.00 | 86 | 1015.2 |
| 20260507111807 | 55 | 27 | 0.0 | 0.0 | 0.00 | 0.00 | 0.00 | 87 | 1015.2 |
| 20260507111606 | 55 | 27 | 0.0 | 0.0 | 0.00 | 0.00 | 0.00 | 87 | 1015.3 |
| 20260507111103 | 56 | 27 | 0.0 | 0.0 | 0.00 | 0.00 | 0.00 | 86 | 1015.3 |
| 20260507110308 | 56 | 27 | 0.0 | 0.0 | 0.00 | 0.00 | 0.00 | 86 | 1015.4 |
| 20260507105807 | 56 | 27 | 0.0 | 0.0 | 0.00 | 0.00 | 0.00 | 86 | 1015.4 |
| 20260507105308 | 56 | 27 | 0.0 | 0.0 | 0.00 | 0.00 | 0.00 | 86 | 1015.5 |
| 20260507104808 | 56 | 27 | 0.0 | 0.0 | 0.00 | 0.00 | 0.00 | 86 | 1015.4 |
| 20260507104307 | 56 | 27 | 0.0 | 0.0 | 0.00 | 0.00 | 0.00 | 86 | 1015.4 |
| 20260507103807 | 56 | 27 | 0.0 | 0.0 | 0.00 | 0.00 | 0.00 | 86 | 1015.4 |
| 20260507103307 | 56 | 27 | 0.0 | 0.0 | 0.00 | 0.00 | 0.00 | 86 | 1015.5 |
| 20260507102807 | 56 | 27 | 0.0 | 0.0 | 0.00 | 0.00 | 0.00 | 86 | 1015.5 |
| 20260507102307 | 56 | 27 | 0.0 | 0.0 | 0.00 | 0.00 | 0.00 | 86 | 1015.6 |
| 20260507101808 | 56 | 27 | 0.0 | 0.0 | 0.00 | 0.00 | 0.00 | 86 | 1015.6 |
| 20260507101307 | 56 | 27 | 0.0 | 0.0 | 0.00 | 0.00 | 0.00 | 86 | 1015.7 |
| 20260507101101 | 56 | 27 | 0.0 | 0.0 | 0.00 | 0.00 | 0.00 | 86 | 1015.7 |
| 20260507100306 | 56 | 27 | 0.0 | 0.0 | 0.00 | 0.00 | 0.00 | 86 | 1015.8 |
| 20260507095806 | 56 | 27 | 0.0 | 0.0 | 0.00 | 0.00 | 0.00 | 86 | 1015.7 |
| 20260507095306 | 56 | 27 | 0.0 | 0.0 | 0.00 | 0.00 | 0.00 | 86 | 1015.7 |
| 20260507095101 | 56 | 31 | 0.0 | 0.0 | 0.00 | 0.00 | 0.00 | 86 | 1015.7 |
| 20260507094305 | 56 | 31 | 0.0 | 0.0 | 0.00 | 0.00 | 0.00 | 85 | 1015.8 |
| 20260507094059 | 56 | 31 | 0.0 | 0.0 | 0.00 | 0.00 | 0.00 | 85 | 1015.8 |
| 20260507093306 | 56 | 34 | 0.0 | 0.0 | 0.00 | 0.00 | 0.00 | 85 | 1015.9 |
| 20260507092806 | 56 | 35 | 0.0 | 0.0 | 0.00 | 0.00 | 0.00 | 85 | 1015.8 |
| 20260507092307 | 56 | 35 | 0.0 | 0.0 | 0.00 | 0.00 | 0.00 | 85 | 1015.8 |
| 20260507091805 | 56 | 35 | 0.0 | 0.0 | 0.00 | 0.00 | 0.00 | 85 | 1016.0 |
| 20260507091307 | 56 | 35 | 0.0 | 0.0 | 0.00 | 0.00 | 0.00 | 85 | 1016.0 |
| 20260507090805 | 57 | 35 | 0.0 | 0.0 | 0.00 | 0.00 | 0.00 | 85 | 1016.0 |
| 20260507090305 | 57 | 35 | 0.0 | 0.0 | 0.00 | 0.00 | 0.00 | 85 | 1016.1 |
| 20260507085805 | 57 | 35 | 0.0 | 0.0 | 0.00 | 0.00 | 0.00 | 85 | 1016.2 |
| 20260507085306 | 57 | 35 | 0.0 | 0.0 | 0.00 | 0.00 | 0.00 | 85 | 1016.2 |
| 20260507084805 | 57 | 35 | 0.0 | 0.0 | 0.00 | 0.00 | 0.00 | 85 | 1016.3 |
| 20260507084305 | 57 | 35 | 0.0 | 0.0 | 0.00 | 0.00 | 0.00 | 85 | 1016.3 |
| 20260507083805 | 57 | 35 | 0.0 | 0.0 | 0.00 | 0.00 | 0.00 | 85 | 1016.3 |
| 20260507083305 | 57 | 354 | 0.0 | 0.0 | 0.00 | 0.00 | 0.00 | 85 | 1016.4 |
| 20260507082805 | 57 | 354 | 0.0 | 0.0 | 0.00 | 0.00 | 0.00 | 85 | 1016.4 |
| 20260507082306 | 57 | 354 | 0.0 | 0.0 | 0.00 | 0.00 | 0.00 | 84 | 1016.5 |
| 20260507081803 | 58 | 354 | 0.0 | 0.0 | 0.00 | 0.00 | 0.00 | 84 | 1016.5 |
| 20260507081304 | 57 | 354 | 0.0 | 0.0 | 0.00 | 0.00 | 0.00 | 84 | 1016.5 |
| 20260507081058 | 58 | 354 | 0.0 | 0.0 | 0.00 | 0.00 | 0.00 | 84 | 1016.5 |
| 20260507080304 | 58 | 354 | 0.0 | 0.0 | 0.00 | 0.00 | 0.00 | 84 | 1016.6 |
| 20260507075803 | 58 | 319 | 0.0 | 0.0 | 0.00 | 0.00 | 0.00 | 84 | 1016.6 |
| 20260507075352 | 58 | 319 | 0.0 | 0.0 | 0.00 | 0.00 | 0.00 | 84 | 1016.6 |
| 20260507075336 | 58 | 319 | 0.0 | 0.0 | 0.00 | 0.00 | 0.00 | 84 | 1016.7 |
| 20260507074302 | 58 | 319 | 0.0 | 0.0 | 0.00 | 0.00 | 0.00 | 84 | 1016.7 |
| 20260507073803 | 58 | 319 | 0.0 | 0.0 | 0.00 | 0.00 | 0.00 | 84 | 1016.7 |
| 20260507073555 | 58 | 319 | 0.0 | 0.0 | 0.00 | 0.00 | 0.00 | 83 | 1016.7 |
| 20260507072802 | 58 | 319 | 0.0 | 0.0 | 0.00 | 0.00 | 0.00 | 83 | 1016.6 |
| 20260507072306 | 58 | 319 | 0.0 | 0.0 | 0.00 | 0.00 | 0.00 | 84 | 1016.7 |
| 20260507071802 | 58 | 0 | 0.0 | 0.0 | 0.00 | 0.00 | 0.00 | 84 | 1016.7 |
| 20260507071303 | 58 | 0 | 0.0 | 0.0 | 0.00 | 0.00 | 0.00 | 83 | 1016.7 |
| 20260507070803 | 58 | 0 | 0.0 | 0.0 | 0.00 | 0.00 | 0.00 | 83 | 1016.8 |
| 20260507070303 | 59 | 0 | 0.0 | 0.0 | 0.00 | 0.00 | 0.00 | 83 | 1016.8 |
| 20260507065803 | 58 | 0 | 0.0 | 0.0 | 0.00 | 0.00 | 0.00 | 83 | 1016.8 |
| 20260507065306 | 58 | 0 | 0.0 | 0.0 | 0.00 | 0.00 | 0.00 | 83 | 1016.9 |
| 20260507064802 | 59 | 0 | 0.0 | 0.0 | 0.00 | 0.00 | 0.00 | 83 | 1016.9 |
| 20260507064555 | 59 | 317 | 0.0 | 0.0 | 0.00 | 0.00 | 0.00 | 83 | 1017.0 |
| 20260507063805 | 59 | 317 | 0.0 | 1.0 | 0.00 | 0.00 | 0.00 | 83 | 1016.9 |
| 20260507063305 | 59 | 300 | 0.0 | 1.0 | 0.00 | 0.00 | 0.00 | 82 | 1017.0 |
| 20260507062802 | 59 | 316 | 0.0 | 0.0 | 0.00 | 0.00 | 0.00 | 83 | 1017.0 |
| 20260507062556 | 59 | 316 | 0.0 | 0.0 | 0.00 | 0.00 | 0.00 | 83 | 1017.0 |
| 20260507061802 | 59 | 316 | 0.0 | 0.0 | 0.00 | 0.00 | 0.00 | 83 | 1017.0 |
| 20260507061302 | 59 | 316 | 0.0 | 0.0 | 0.00 | 0.00 | 0.00 | 82 | 1017.0 |
| 20260507060802 | 59 | 329 | 0.0 | 1.0 | 0.00 | 0.00 | 0.00 | 82 | 1017.0 |
| 20260507060302 | 59 | 329 | 0.0 | 1.0 | 0.00 | 0.00 | 0.00 | 83 | 1017.0 |
| 20260507060056 | 60 | 295 | 0.0 | 0.0 | 0.00 | 0.00 | 0.00 | 83 | 1017.0 |
| 20260507055349 | 60 | 295 | 0.0 | 2.0 | 0.00 | 0.00 | 0.00 | 82 | 1016.9 |
| 20260507055337 | 60 | 295 | 0.0 | 0.0 | 0.00 | 0.00 | 0.00 | 83 | 1017.0 |
| 20260507054336 | 60 | 295 | 0.0 | 3.0 | 0.00 | 0.00 | 0.00 | 82 | 1016.9 |
| 20260507053302 | 60 | 282 | 1.0 | 3.0 | 0.00 | 0.00 | 0.00 | 82 | 1016.9 |
| 20260507052804 | 60 | 314 | 0.0 | 2.0 | 0.00 | 0.00 | 0.00 | 82 | 1016.9 |
| 20260507052306 | 60 | 307 | 0.0 | 2.0 | 0.00 | 0.00 | 0.00 | 82 | 1017.0 |
| 20260507051802 | 60 | 324 | 1.0 | 3.0 | 0.00 | 0.00 | 0.00 | 81 | 1016.9 |
| 20260507051555 | 60 | 309 | 1.0 | 3.0 | 0.00 | 0.00 | 0.00 | 81 | 1016.9 |
| 20260507050803 | 60 | 292 | 1.0 | 3.0 | 0.00 | 0.00 | 0.00 | 81 | 1016.9 |
| 20260507050302 | 60 | 309 | 0.0 | 1.0 | 0.00 | 0.00 | 0.00 | 81 | 1016.9 |
| 20260507045802 | 60 | 343 | 0.0 | 1.0 | 0.00 | 0.00 | 0.00 | 81 | 1016.8 |
| 20260507045306 | 60 | 293 | 0.0 | 3.0 | 0.00 | 0.00 | 0.00 | 81 | 1016.9 |
| 20260507044801 | 60 | 323 | 0.0 | 3.0 | 0.00 | 0.00 | 0.00 | 81 | 1016.8 |
| 20260507044305 | 61 | 320 | 0.0 | 3.0 | 0.00 | 0.00 | 0.00 | 80 | 1016.9 |
| 20260507044056 | 61 | 281 | 0.0 | 3.0 | 0.00 | 0.00 | 0.00 | 80 | 1016.9 |
| 20260507043302 | 61 | 306 | 0.0 | 3.0 | 0.00 | 0.00 | 0.00 | 80 | 1016.8 |
| 20260507042802 | 61 | 312 | 2.0 | 3.0 | 0.00 | 0.00 | 0.00 | 80 | 1016.8 |
| 20260507042306 | 61 | 268 | 1.0 | 3.0 | 0.00 | 0.00 | 0.00 | 79 | 1016.8 |
| 20260507041802 | 61 | 286 | 0.0 | 3.0 | 0.00 | 0.00 | 0.00 | 79 | 1016.7 |
| 20260507041302 | 61 | 279 | 0.0 | 3.0 | 0.00 | 0.00 | 0.00 | 79 | 1016.8 |
| 20260507040803 | 61 | 288 | 0.0 | 4.0 | 0.00 | 0.00 | 0.00 | 79 | 1016.6 |
| 20260507040303 | 61 | 292 | 2.0 | 4.0 | 0.00 | 0.00 | 0.00 | 79 | 1016.7 |
| 20260507035802 | 62 | 286 | 2.0 | 4.0 | 0.00 | 0.00 | 0.00 | 79 | 1016.6 |
| 20260507035306 | 62 | 290 | 0.0 | 4.0 | 0.00 | 0.00 | 0.00 | 78 | 1016.6 |
| 20260507034759 | 62 | 296 | 2.0 | 4.0 | 0.00 | 0.00 | 0.00 | 78 | 1016.5 |
| 20260507034258 | 62 | 299 | 2.0 | 4.0 | 0.00 | 0.00 | 0.00 | 78 | 1016.5 |
| 20260507033801 | 62 | 285 | 2.0 | 4.0 | 0.00 | 0.00 | 0.00 | 77 | 1016.5 |
| 20260507033258 | 62 | 262 | 2.0 | 3.0 | 0.00 | 0.00 | 0.00 | 77 | 1016.4 |
| 20260507032757 | 62 | 293 | 1.0 | 5.0 | 0.00 | 0.00 | 0.00 | 77 | 1016.4 |
| 20260507032257 | 63 | 278 | 3.0 | 5.0 | 0.00 | 0.00 | 0.00 | 77 | 1016.3 |
| 20260507031757 | 63 | 285 | 3.0 | 5.0 | 0.00 | 0.00 | 0.00 | 76 | 1016.3 |
| 20260507031259 | 63 | 265 | 3.0 | 7.0 | 0.00 | 0.00 | 0.00 | 76 | 1016.1 |
| 20260507030757 | 63 | 295 | 4.0 | 7.0 | 0.00 | 0.00 | 0.00 | 75 | 1016.1 |
| 20260507030257 | 64 | 298 | 4.0 | 7.0 | 0.00 | 0.00 | 0.00 | 74 | 1016.3 |
| 20260507030055 | 64 | 316 | 4.0 | 7.0 | 0.00 | 0.00 | 0.00 | 73 | 1016.2 |
| 20260507025255 | 64 | 295 | 2.0 | 6.0 | 0.00 | 0.00 | 0.00 | 73 | 1016.1 |
| 20260507024756 | 65 | 306 | 4.0 | 6.0 | 0.00 | 0.00 | 0.00 | 72 | 1016.2 |
| 20260507024256 | 65 | 303 | 4.0 | 6.0 | 0.00 | 0.00 | 0.00 | 72 | 1016.1 |
| 20260507023757 | 65 | 296 | 3.0 | 6.0 | 0.00 | 0.00 | 0.00 | 71 | 1016.0 |
| 20260507023256 | 65 | 293 | 4.0 | 7.0 | 0.00 | 0.00 | 0.00 | 70 | 1016.0 |
| 20260507022756 | 66 | 303 | 4.0 | 7.0 | 0.00 | 0.00 | 0.00 | 70 | 1015.9 |
| 20260507022256 | 66 | 268 | 3.0 | 10.0 | 0.00 | 0.00 | 0.00 | 69 | 1015.9 |
| 20260507021755 | 66 | 272 | 4.0 | 10.0 | 0.00 | 0.00 | 0.00 | 69 | 1016.0 |
| 20260507021255 | 67 | 323 | 5.0 | 7.0 | 0.00 | 0.00 | 0.00 | 68 | 1016.0 |
| 20260507020755 | 67 | 303 | 3.0 | 9.0 | 0.00 | 0.00 | 0.00 | 68 | 1015.9 |
| 20260507020255 | 67 | 272 | 5.0 | 11.0 | 0.00 | 0.00 | 0.00 | 68 | 1015.8 |
| 20260507015756 | 67 | 300 | 4.0 | 11.0 | 0.00 | 0.00 | 0.00 | 67 | 1015.8 |
| 20260507015255 | 67 | 316 | 4.0 | 9.0 | 0.00 | 0.00 | 0.00 | 67 | 1015.8 |
| 20260507014755 | 67 | 309 | 3.0 | 10.0 | 0.00 | 0.00 | 0.00 | 66 | 1015.8 |
| 20260507014256 | 67 | 309 | 6.0 | 10.0 | 0.00 | 0.00 | 0.00 | 66 | 1015.8 |
| 20260507014051 | 67 | 305 | 3.0 | 9.0 | 0.00 | 0.00 | 0.00 | 65 | 1015.8 |
| 20260507013547 | 68 | 296 | 5.0 | 9.0 | 0.00 | 0.00 | 0.00 | 65 | 1015.8 |
| 20260507012754 | 68 | 327 | 6.0 | 9.0 | 0.00 | 0.00 | 0.00 | 65 | 1015.8 |
| 20260507012255 | 68 | 320 | 5.0 | 10.0 | 0.00 | 0.00 | 0.00 | 66 | 1015.7 |
| 20260507011754 | 68 | 326 | 5.0 | 10.0 | 0.00 | 0.00 | 0.00 | 66 | 1015.6 |
| 20260507011254 | 68 | 281 | 6.0 | 11.0 | 0.00 | 0.00 | 0.00 | 66 | 1015.7 |
| 20260507010754 | 68 | 293 | 5.0 | 11.0 | 0.00 | 0.00 | 0.00 | 68 | 1015.7 |
| 20260507010549 | 68 | 295 | 4.0 | 10.0 | 0.00 | 0.00 | 0.00 | 68 | 1015.6 |
| 20260507010052 | 68 | 268 | 4.0 | 11.0 | 0.00 | 0.00 | 0.00 | 68 | 1015.7 |
| 20260507005550 | 68 | 238 | 6.0 | 11.0 | 0.00 | 0.00 | 0.00 | 67 | 1015.6 |
| 20260507004755 | 68 | 289 | 6.0 | 12.0 | 0.00 | 0.00 | 0.00 | 67 | 1015.7 |
| 20260507004253 | 68 | 316 | 5.0 | 12.0 | 0.00 | 0.00 | 0.00 | 68 | 1015.6 |
| 20260507003752 | 68 | 269 | 6.0 | 12.0 | 0.00 | 0.00 | 0.00 | 67 | 1015.6 |
| 20260507003252 | 69 | 265 | 5.0 | 12.0 | 0.00 | 0.00 | 0.00 | 68 | 1015.6 |
| 20260507002754 | 69 | 258 | 5.0 | 12.0 | 0.00 | 0.00 | 0.00 | 66 | 1015.6 |
| 20260507002548 | 68 | 281 | 4.0 | 12.0 | 0.00 | 0.00 | 0.00 | 67 | 1015.5 |
| 20260507001753 | 69 | 310 | 8.0 | 13.0 | 0.00 | 0.00 | 0.00 | 66 | 1015.4 |
| 20260507001252 | 68 | 300 | 5.0 | 13.0 | 0.00 | 0.00 | 0.00 | 65 | 1015.5 |
| 20260507000753 | 69 | 309 | 4.0 | 12.0 | 0.00 | 0.00 | 0.00 | 63 | 1015.4 |
| 20260507000251 | 69 | 234 | 8.0 | 12.0 | 0.00 | 0.00 | 0.00 | 64 | 1015.4 |
| 20260506235752 | 70 | 234 | 6.0 | 11.0 | 0.00 | 0.00 | 0.00 | 61 | 1015.3 |
| 20260506235547 | 70 | 278 | 6.0 | 14.0 | 0.00 | 0.00 | 0.00 | 61 | 1015.3 |
| 20260506234752 | 70 | 292 | 5.0 | 14.0 | 0.00 | 0.00 | 0.00 | 60 | 1015.4 |
| 20260506234251 | 70 | 261 | 4.0 | 12.0 | 0.00 | 0.00 | 0.00 | 60 | 1015.3 |
| 20260506233752 | 70 | 314 | 7.0 | 13.0 | 0.00 | 0.00 | 0.00 | 61 | 1015.3 |
| 20260506233251 | 69 | 316 | 5.0 | 13.0 | 0.00 | 0.00 | 0.00 | 61 | 1015.3 |
| 20260506232750 | 70 | 289 | 6.0 | 12.0 | 0.00 | 0.00 | 0.00 | 62 | 1015.3 |
| 20260506232252 | 69 | 305 | 6.0 | 13.0 | 0.00 | 0.00 | 0.00 | 64 | 1015.5 |
| 20260506232046 | 70 | 302 | 8.0 | 13.0 | 0.00 | 0.00 | 0.00 | 62 | 1015.4 |
| 20260506231549 | 70 | 337 | 7.0 | 13.0 | 0.00 | 0.00 | 0.00 | 63 | 1015.5 |
| 20260506230845 | 71 | 317 | 4.0 | 13.0 | 0.00 | 0.00 | 0.00 | 63 | 1015.5 |
| 20260506230830 | 70 | 271 | 7.0 | 13.0 | 0.00 | 0.00 | 0.00 | 61 | 1015.5 |
| 20260506225751 | 70 | 243 | 7.0 | 13.0 | 0.00 | 0.00 | 0.00 | 63 | 1015.5 |
| 20260506225251 | 70 | 324 | 6.0 | 12.0 | 0.00 | 0.00 | 0.00 | 61 | 1015.6 |
| 20260506224846 | 71 | 279 | 7.0 | 13.0 | 0.00 | 0.00 | 0.00 | 63 | 1015.8 |
| 20260506224828 | 70 | 288 | 9.0 | 13.0 | 0.00 | 0.00 | 0.00 | 63 | 1015.6 |
| 20260506223840 | 71 | 300 | 8.0 | 13.0 | 0.00 | 0.00 | 0.00 | 61 | 1015.7 |
| 20260506223824 | 71 | 233 | 6.0 | 13.0 | 0.00 | 0.00 | 0.00 | 63 | 1015.7 |
| 20260506222750 | 70 | 313 | 6.0 | 15.0 | 0.00 | 0.00 | 0.00 | 62 | 1015.8 |
| 20260506222546 | 70 | 300 | 9.0 | 15.0 | 0.00 | 0.00 | 0.00 | 62 | 1015.8 |
| 20260506221749 | 70 | 307 | 7.0 | 12.0 | 0.00 | 0.00 | 0.00 | 61 | 1015.8 |
| 20260506221249 | 70 | 0 | 7.0 | 13.0 | 0.00 | 0.00 | 0.00 | 60 | 1015.8 |
| 20260506220750 | 71 | 312 | 8.0 | 13.0 | 0.00 | 0.00 | 0.00 | 61 | 1015.8 |
| 20260506220250 | 71 | 312 | 5.0 | 14.0 | 0.00 | 0.00 | 0.00 | 61 | 1015.9 |
| 20260506215749 | 71 | 254 | 7.0 | 14.0 | 0.00 | 0.00 | 0.00 | 61 | 1015.9 |
| 20260506215249 | 71 | 314 | 7.0 | 13.0 | 0.00 | 0.00 | 0.00 | 62 | 1016.0 |
| 20260506214749 | 71 | 266 | 8.0 | 14.0 | 0.00 | 0.00 | 0.00 | 62 | 1016.1 |
| 20260506214249 | 71 | 285 | 7.0 | 14.0 | 0.00 | 0.00 | 0.00 | 61 | 1016.1 |
| 20260506213749 | 71 | 281 | 6.0 | 17.0 | 0.00 | 0.00 | 0.00 | 59 | 1016.1 |
| 20260506213248 | 71 | 340 | 8.0 | 17.0 | 0.00 | 0.00 | 0.00 | 59 | 1016.1 |
| 20260506212748 | 71 | 303 | 5.0 | 14.0 | 0.00 | 0.00 | 0.00 | 60 | 1016.1 |
| 20260506212247 | 72 | 300 | 9.0 | 14.0 | 0.00 | 0.00 | 0.00 | 59 | 1016.1 |
| 20260506211748 | 72 | 261 | 6.0 | 13.0 | 0.00 | 0.00 | 0.00 | 59 | 1016.1 |
| 20260506211248 | 72 | 286 | 9.0 | 13.0 | 0.00 | 0.00 | 0.00 | 56 | 1016.1 |
| 20260506210748 | 72 | 289 | 7.0 | 14.0 | 0.00 | 0.00 | 0.00 | 57 | 1016.1 |
| 20260506210249 | 71 | 331 | 8.0 | 15.0 | 0.00 | 0.00 | 0.00 | 58 | 1016.2 |
| 20260506205748 | 72 | 265 | 8.0 | 15.0 | 0.00 | 0.00 | 0.00 | 58 | 1016.3 |
| 20260506205339 | 70 | 258 | 7.0 | 14.0 | 0.00 | 0.00 | 0.00 | 61 | 1016.3 |
| 20260506205322 | 71 | 317 | 7.0 | 13.0 | 0.00 | 0.00 | 0.00 | 60 | 1016.2 |
| 20260506204247 | 71 | 327 | 7.0 | 14.0 | 0.00 | 0.00 | 0.00 | 60 | 1016.1 |
| 20260506204042 | 72 | 298 | 6.0 | 12.0 | 0.00 | 0.00 | 0.00 | 59 | 1016.3 |
| 20260506203247 | 72 | 237 | 7.0 | 13.0 | 0.00 | 0.00 | 0.00 | 59 | 1016.3 |
| 20260506202746 | 71 | 313 | 9.0 | 14.0 | 0.00 | 0.00 | 0.00 | 60 | 1016.3 |
| 20260506202247 | 71 | 0 | 8.0 | 14.0 | 0.00 | 0.00 | 0.00 | 60 | 1016.4 |
| 20260506201745 | 71 | 305 | 8.0 | 13.0 | 0.00 | 0.00 | 0.00 | 60 | 1016.5 |
| 20260506201246 | 71 | 296 | 7.0 | 13.0 | 0.00 | 0.00 | 0.00 | 60 | 1016.4 |
| 20260506201133 | 72 | 307 | 5.0 | 13.0 | 0.00 | 0.00 | 0.00 | 60 | 1016.4 |
| 20260506201128 | 71 | 307 | 9.0 | 13.0 | 0.00 | 0.00 | 0.00 | 60 | 1016.4 |
| 20260506195746 | 72 | 257 | 7.0 | 16.0 | 0.00 | 0.00 | 0.00 | 59 | 1016.5 |
| 20260506195246 | 72 | 305 | 9.0 | 16.0 | 0.00 | 0.00 | 0.00 | 59 | 1016.6 |
| 20260506194746 | 72 | 268 | 6.0 | 11.0 | 0.00 | 0.00 | 0.00 | 59 | 1016.6 |
| 20260506194236 | 71 | 265 | 5.0 | 13.0 | 0.00 | 0.00 | 0.00 | 59 | 1016.8 |
| 20260506193735 | 72 | 254 | 5.0 | 13.0 | 0.00 | 0.00 | 0.00 | 58 | 1016.8 |
| 20260506193235 | 72 | 293 | 6.0 | 13.0 | 0.00 | 0.00 | 0.00 | 58 | 1016.7 |
| 20260506192734 | 73 | 255 | 6.0 | 12.0 | 0.00 | 0.00 | 0.00 | 57 | 1016.7 |
| 20260506192330 | 72 | 257 | 3.0 | 14.0 | 0.00 | 0.00 | 0.00 | 57 | 1016.8 |
| 20260506192311 | 72 | 353 | 7.0 | 14.0 | 0.00 | 0.00 | 0.00 | 58 | 1016.8 |
| 20260506191232 | 72 | 217 | 6.0 | 12.0 | 0.00 | 0.00 | 0.00 | 57 | 1016.8 |
| 20260506190731 | 72 | 295 | 6.0 | 9.0 | 0.00 | 0.00 | 0.00 | 58 | 1016.8 |
| 20260506190233 | 72 | 197 | 3.0 | 12.0 | 0.00 | 0.00 | 0.00 | 58 | 1016.8 |
| 20260506185731 | 71 | 281 | 5.0 | 12.0 | 0.00 | 0.00 | 0.00 | 59 | 1016.8 |
| 20260506185231 | 72 | 299 | 7.0 | 12.0 | 0.00 | 0.00 | 0.00 | 58 | 1017.0 |
| 20260506184732 | 71 | 276 | 5.0 | 11.0 | 0.00 | 0.00 | 0.00 | 59 | 1017.0 |
| 20260506184231 | 72 | 72 | 5.0 | 9.0 | 0.00 | 0.00 | 0.00 | 57 | 1017.1 |
| 20260506183731 | 71 | 320 | 4.0 | 14.0 | 0.00 | 0.00 | 0.00 | 58 | 1017.0 |
| 20260506183231 | 71 | 279 | 6.0 | 14.0 | 0.00 | 0.00 | 0.00 | 59 | 1017.2 |
| 20260506182732 | 71 | 227 | 4.0 | 12.0 | 0.00 | 0.00 | 0.00 | 58 | 1017.2 |
| 20260506182231 | 71 | 343 | 2.0 | 12.0 | 0.00 | 0.00 | 0.00 | 58 | 1017.2 |
| 20260506181731 | 71 | 281 | 7.0 | 12.0 | 0.00 | 0.00 | 0.00 | 58 | 1017.2 |
| 20260506181232 | 70 | 48 | 2.0 | 6.0 | 0.00 | 0.00 | 0.00 | 57 | 1017.2 |
| 20260506180732 | 70 | 296 | 5.0 | 6.0 | 0.00 | 0.00 | 0.00 | 59 | 1017.3 |
| 20260506180231 | 69 | 145 | 1.0 | 10.0 | 0.00 | 0.00 | 0.00 | 57 | 1017.3 |
| 20260506175731 | 71 | 288 | 5.0 | 10.0 | 0.00 | 0.00 | 0.00 | 56 | 1017.4 |
| 20260506175232 | 71 | 292 | 4.0 | 6.0 | 0.00 | 0.00 | 0.00 | 58 | 1017.4 |
| 20260506174733 | 69 | 282 | 1.0 | 7.0 | 0.00 | 0.00 | 0.00 | 60 | 1017.4 |
| 20260506174231 | 69 | 336 | 4.0 | 10.0 | 0.00 | 0.00 | 0.00 | 59 | 1017.5 |
| 20260506174028 | 69 | 292 | 4.0 | 11.0 | 0.00 | 0.00 | 0.00 | 59 | 1017.6 |
| 20260506173230 | 69 | 31 | 3.0 | 11.0 | 0.00 | 0.00 | 0.00 | 59 | 1017.6 |
| 20260506172731 | 69 | 283 | 3.0 | 6.0 | 0.00 | 0.00 | 0.00 | 60 | 1017.6 |
| 20260506172231 | 68 | 252 | 3.0 | 7.0 | 0.00 | 0.00 | 0.00 | 61 | 1017.6 |
| 20260506171731 | 67 | 169 | 1.0 | 7.0 | 0.00 | 0.00 | 0.00 | 60 | 1017.6 |
| 20260506171230 | 68 | 347 | 1.0 | 10.0 | 0.00 | 0.00 | 0.00 | 60 | 1017.7 |
| 20260506170731 | 68 | 244 | 5.0 | 10.0 | 0.00 | 0.00 | 0.00 | 60 | 1017.7 |
| 20260506170231 | 68 | 314 | 3.0 | 7.0 | 0.00 | 0.00 | 0.00 | 61 | 1017.7 |
| 20260506170026 | 67 | 327 | 2.0 | 9.0 | 0.00 | 0.00 | 0.00 | 62 | 1017.7 |
| 20260506165231 | 67 | 319 | 3.0 | 9.0 | 0.00 | 0.00 | 0.00 | 63 | 1017.7 |
| 20260506164731 | 67 | 34 | 1.0 | 6.0 | 0.00 | 0.00 | 0.00 | 65 | 1017.6 |
| 20260506164234 | 65 | 278 | 5.0 | 7.0 | 0.00 | 0.00 | 0.00 | 65 | 1017.7 |
| 20260506164024 | 66 | 313 | 2.0 | 7.0 | 0.00 | 0.00 | 0.00 | 66 | 1017.7 |
| 20260506163308 | 66 | 224 | 2.0 | 5.0 | 0.00 | 0.00 | 0.00 | 65 | 1017.7 |
| 20260506162231 | 65 | 11 | 3.0 | 5.0 | 0.00 | 0.00 | 0.00 | 67 | 1017.7 |
| 20260506161731 | 65 | 343 | 3.0 | 5.0 | 0.00 | 0.00 | 0.00 | 68 | 1017.7 |
| 20260506161230 | 65 | 316 | 3.0 | 5.0 | 0.00 | 0.00 | 0.00 | 67 | 1017.7 |
| 20260506160731 | 65 | 292 | 0.0 | 0.0 | 0.00 | 0.00 | 0.00 | 69 | 1017.8 |
| 20260506160230 | 63 | 103 | 0.0 | 0.0 | 0.00 | 0.00 | 0.00 | 71 | 1017.7 |
| 20260506155732 | 63 | 345 | 0.0 | 1.0 | 0.00 | 0.00 | 0.00 | 70 | 1017.7 |
| 20260506155231 | 64 | 298 | 0.0 | 1.0 | 0.00 | 0.00 | 0.00 | 71 | 1017.7 |
| 20260506154733 | 64 | 196 | 0.0 | 0.0 | 0.00 | 0.00 | 0.00 | 72 | 1017.7 |
| 20260506154231 | 63 | 200 | 0.0 | 0.0 | 0.00 | 0.01 | 0.00 | 72 | 1017.7 |
| 20260506153732 | 62 | 179 | 0.0 | 0.0 | 0.00 | 0.01 | 0.00 | 73 | 1017.7 |
| 20260506153231 | 62 | 0 | 0.0 | 0.0 | 0.00 | 0.01 | 0.00 | 75 | 1017.7 |
| 20260506153028 | 61 | 0 | 0.0 | 0.0 | 0.00 | 0.01 | 0.00 | 74 | 1017.7 |
| 20260506152232 | 61 | 62 | 0.0 | 0.0 | 0.00 | 0.01 | 0.00 | 74 | 1017.7 |
| 20260506151732 | 62 | 0 | 0.0 | 0.0 | 0.00 | 0.01 | 0.00 | 75 | 1017.7 |
| 20260506151231 | 61 | 0 | 0.0 | 0.0 | 0.00 | 0.01 | 0.00 | 77 | 1017.8 |